Location: ?????
(31.7405°N, 35.1927°E)
Time: 09:10:29
(UTC+00:00)

Cosmos 1943 - Pass Details

Date: 17 February 2020
Orbit: 832 x 852 km, 71.0° (Epoch: 09 April)

Event Time Altitude Azimuth Distance (km) Brightness Sun altitude
Rises 03:13:57 0° 210° (SSW) 3,360 6.1 -14.7°
Reaches altitude 10° 03:16:25 10° 215° (SW) 2,429 5.3 -14.1°
Maximum altitude 03:21:52 55° 292° (WNW) 992 3.2 -13.0°
Drops below altitude 10° 03:27:22 10° 10° (N) 2,448 5.7 -11.8°
Sets 03:29:52 0° 15° (NNE) 3,387 6.4 -11.3°
